Lid_Strength_Index
3 3 2 2 2 2 2 1 1 2 2 2 2 2 2 2 2 5 8 4 3 1 2 6 9 10 10 11 11 11 16 17 15 15 13 12 13 11 9 10 8 7 7 6 4
3 3 3 3 3 3 3 3 3 3 2 3 3 2 2 2 6 7 4 2 2 1 6 8 10 11 13 13 13 14 16 15 13 13 14 13 12 12 11 10 11 8 5 4 4
3 3 3 3 2 2 3 3 3 3 3 3 3 3 3 4 10 9 3 3 2 3 6 8 9 11 15 14 14 14 16 14 13 12 12 12 13 12 13 13 10 9 6 5 5
3 3 3 3 3 3 3 3 3 3 3 3 3 3 3 7 17 7 4 3 2 5 8 9 10 13 15 16 14 17 13 12 12 11 12 13 12 13 11 11 10 10 6 5 5
3 3 3 3 3 3 3 3 2 3 3 3 3 3 6 11 11 6 3 4 6 6 9 10 12 14 16 16 14 16 16 14 13 13 13 12 13 13 13 10 9 9 7 5 5
3 3 3 3 3 3 3 3 3 2 2 2 3 3 7 13 6 5 6 6 7 7 9 9 11 11 14 15 16 15 14 15 14 14 14 14 14 14 13 11 11 10 7 6 5
2 2 2 3 3 3 3 3 2 3 2 2 2 4 8 10 5 5 6 7 7 7 9 8 8 10 12 14 13 14 16 15 16 14 14 14 15 15 13 12 11 10 11 7 5
1 2 2 2 2 2 2 2 2 2 2 2 2 6 11 5 5 5 5 7 6 6 7 7 7 9 12 12 14 17 18 20 16 15 14 13 18 15 13 13 13 12 12 11 9
1 1 1 2 2 1 2 2 2 1 1 2 5 6 11 4 6 4 4 7 6 6 7 5 7 11 11 15 18 19 22 20 18 14 14 15 17 15 14 14 14 14 13 12 11
0 1 1 1 1 1 1 1 2 2 3 3 3 9 8 9 6 5 5 4 6 7 8 8 9 14 15 17 21 20 20 19 20 16 14 16 17 16 15 15 15 14 14 13 13
-0 -0 0 0 0 1 2 6 9 10 5 9 8 8 7 5 4 5 4 5 6 8 11 9 13 16 14 13 15 17 18 19 18 15 15 16 17 16 15 16 16 16 16 15 14
-0 -0 -0 -0 -0 0 4 7 7 6 11 7 7 7 6 5 9 6 4 8 9 11 10 11 14 12 11 11 13 14 17 17 15 13 13 14 16 15 16 16 16 15 15 15 14
-0 -0 -0 -0 0 3 6 6 3 4 11 10 7 8 8 7 9 8 6 7 10 12 11 13 12 10 10 12 13 14 15 15 16 13 12 15 17 15 15 15 15 14 14 14 13
-0 -0 -0 -0 4 5 7 3 3 6 21 15 10 8 7 7 10 5 5 7 9 12 11 12 9 11 11 12 11 15 11 12 13 15 18 13 21 18 18 16 16 15 14 13 12
-1 -1 -1 -0 5 6 4 3 4 9 27 13 10 4 6 9 9 8 5 7 11 11 10 13 13 12 12 12 10 13 11 13 13 16 17 17 20 20 17 17 16 14 13 12 11
-1 -1 -1 2 4 3 2 4 6 18 27 14 8 10 9 9 9 8 8 6 8 10 11 11 9 10 12 10 10 10 12 13 14 16 20 18 18 19 18 16 15 13 12 12 12
-1 -1 0 1 6 2 3 7 16 22 15 14 12 10 11 12 11 10 11 13 14 19 16 14 13 11 9 12 10 11 14 18 21 20 21 17 17 18 16 15 14 13 12 12 11
-1 -1 1 2 2 3 5 10 19 19 16 11 11 11 14 12 12 11 14 16 11 13 18 18 19 14 12 13 13 14 13 18 24 21 20 16 19 18 15 12 11 11 11 11 12
-0 4 5 4 2 4 9 16 18 15 11 11 11 14 14 11 12 13 17 17 13 12 17 20 17 12 12 11 12 14 15 12 16 16 19 18 17 15 13 13 12 12 11 11 10
3 5 6 3 2 5 10 13 15 9 8 8 13 13 18 14 16 16 16 13 13 12 15 16 18 14 12 11 11 12 12 16 15 21 22 19 18 19 16 14 12 12 12 11 10
6 11 6 2 3 6 13 16 10 7 7 10 12 12 12 13 14 15 14 10 9 10 12 14 16 15 13 13 15 14 15 14 15 16 19 21 19 14 14 12 11 10 11 10 10
7 12 6 3 11 13 14 14 7 8 7 8 8 10 12 11 12 14 14 11 8 9 12 11 14 18 16 13 12 13 15 13 18 20 18 18 19 11 13 12 12 12 11 10 10
8 13 6 6 13 18 12 10 8 9 9 9 10 9 9 11 13 11 11 8 8 9 12 12 19 24 19 16 13 13 12 12 13 15 18 21 19 12 13 13 12 11 11 10 10
8 14 14 7 8 9 11 11 11 8 9 8 9 8 10 12 10 12 11 9 8 8 6 7 14 17 20 17 15 17 13 13 14 18 18 18 17 15 14 13 12 11 10 10 10
8 13 14 16 14 12 12 11 11 11 8 8 10 9 11 13 12 12 10 10 9 7 8 10 15 14 13 13 13 13 13 13 14 14 17 17 16 14 13 12 12 11 10 10 10
14 12 16 11 10 15 12 16 10 10 10 10 11 10 9 12 11 12 10 10 10 9 9 9 14 13 17 12 12 13 12 13 12 12 13 14 15 12 11 11 12 11 11 10 10
7 7 8 12 16 15 16 12 11 9 8 8 8 10 11 10 8 7 7 7 8 9 10 11 13 15 17 13 14 23 15 13 12 12 12 15 12 11 12 12 11 11 10 10 8